Wind_Speed
24 22 21 20 20 20 20 20 20 21 21 23 24 25 26 27 29 30 32 34 35 37 38 39 40 41 41 42 44 45 47 49 50 51 52 53 54 55 56 56 57 58 59 59 59 59 59 59 58 58 57 57 57 57 58 59 59 60 60 61 61 59 55 52 51 50 46 43 41 39 34 34 36 38 50 57 50 41 32 38 40 33 32 33 32 32 33 31
27 25 23 22 21 20 21 21 21 21 21 22 23 24 25 26 28 29 30 32 33 35 36 37 38 39 39 40 41 43 44 46 47 49 50 51 52 54 55 56 57 58 59 60 60 60 61 61 61 60 60 59 59 58 59 59 61 62 62 62 61 58 55 52 52 51 48 45 43 41 36 34 34 31 43 58 56 47 38 40 43 34 32 35 36 36 35 32
31 29 26 24 22 21 20 20 21 22 22 23 23 24 24 26 27 28 30 31 32 33 34 35 36 37 38 39 40 41 43 44 46 47 48 49 50 52 53 55 56 57 59 60 61 61 62 62 63 63 62 62 61 60 59 60 62 63 64 64 60 57 56 55 54 53 50 47 44 43 39 35 34 32 39 56 60 52 45 46 46 39 36 37 38 38 36 33
33 32 30 27 25 23 21 20 20 21 22 23 23 24 24 25 26 27 28 29 31 32 33 34 35 36 36 37 38 39 41 42 43 45 47 48 49 50 51 52 54 55 57 59 60 61 62 63 64 64 64 64 63 63 62 61 62 63 65 65 58 57 59 57 55 54 52 50 47 44 42 38 35 34 36 50 65 62 50 47 46 43 41 39 38 39 39 36
34 34 32 30 27 24 23 21 20 20 20 21 22 23 25 25 26 27 28 29 30 31 32 32 33 34 35 35 36 37 38 39 39 41 43 44 45 46 48 50 52 54 55 57 58 60 61 63 64 65 66 66 66 66 64 63 63 65 66 64 60 60 61 59 55 54 54 52 50 47 44 40 36 35 35 41 59 67 57 47 46 48 46 41 37 37 40 36
35 34 34 31 28 26 24 22 21 20 20 20 20 21 23 25 26 27 28 30 31 32 32 33 33 34 35 35 35 35 36 36 36 36 37 38 39 41 44 47 49 51 52 54 56 58 59 61 62 64 66 67 67 67 66 66 66 67 66 64 63 63 63 61 58 56 56 55 54 50 45 42 38 36 36 36 44 54 54 50 52 60 61 50 41 37 36 32
37 36 35 33 30 27 25 23 22 21 20 20 20 20 21 23 25 26 28 30 31 32 33 33 33 33 34 35 34 33 34 34 33 32 33 34 36 38 41 43 45 47 48 50 52 54 56 58 60 62 65 66 67 67 68 68 68 69 67 65 65 66 65 62 61 60 59 58 56 53 48 45 43 39 39 40 39 38 40 43 45 56 63 53 46 41 35 33
40 38 37 35 32 29 27 25 23 22 21 21 21 21 22 23 24 25 27 28 30 31 32 32 32 32 32 33 32 33 32 31 30 30 31 33 34 36 38 41 43 44 45 47 49 51 53 54 56 59 62 64 66 67 68 69 70 70 68 66 67 68 67 65 64 63 61 60 58 56 52 49 46 42 42 43 41 36 33 34 33 44 56 53 50 45 37 37
41 40 39 36 33 31 28 27 25 24 23 22 22 22 23 24 25 26 27 28 29 29 30 31 31 30 30 30 31 32 30 28 28 29 29 31 32 33 36 38 40 42 43 45 47 50 51 52 54 57 59 62 65 65 66 68 70 71 69 69 70 70 70 68 67 66 64 62 60 59 57 52 48 45 45 44 43 39 31 29 29 38 53 57 56 51 42 39
42 41 40 38 35 33 30 28 27 26 25 24 24 24 24 25 25 26 27 28 29 30 30 30 30 29 28 29 30 31 28 27 28 28 28 29 30 31 33 35 37 38 40 42 44 47 49 51 53 56 59 60 62 63 64 67 69 69 71 72 73 73 73 71 70 68 65 64 61 60 60 56 51 49 49 46 45 41 32 31 32 33 40 47 50 48 40 36
41 41 41 40 38 36 34 32 31 30 29 29 28 28 28 29 29 28 28 27 28 30 31 31 30 29 27 28 30 30 27 28 27 26 27 27 29 30 30 32 34 35 36 38 40 43 45 48 51 54 58 61 61 62 63 65 68 69 71 75 76 75 75 74 73 70 68 66 63 61 61 59 56 55 52 49 46 43 37 35 35 34 35 37 38 36 34 33
40 41 41 40 39 38 36 35 34 33 32 32 31 31 31 32 33 33 32 30 29 29 30 30 30 29 27 28 31 29 27 28 27 26 27 27 28 28 29 30 32 33 34 34 36 39 42 45 48 51 55 59 61 62 62 62 66 69 71 75 76 76 77 76 75 73 71 69 65 61 62 64 63 57 55 53 47 45 44 40 38 38 38 36 32 30 30 33
39 39 40 40 39 38 37 36 35 34 33 32 32 32 33 34 35 36 36 34 32 31 30 28 28 28 27 30 32 30 28 29 29 28 28 28 28 28 29 30 31 31 32 32 32 34 37 40 43 47 51 56 58 60 62 61 63 66 69 73 75 77 78 77 75 74 73 71 67 63 64 68 65 58 55 55 50 48 49 45 42 42 41 39 35 33 32 34
39 39 39 39 38 37 37 36 35 34 33 33 32 33 33 34 36 37 38 36 35 34 31 29 27 27 26 30 33 31 30 30 30 30 29 29 29 30 30 31 31 32 32 32 31 31 34 35 37 40 45 51 56 59 61 61 61 64 66 70 74 77 78 76 75 75 75 73 69 66 68 68 64 58 55 54 53 52 51 49 46 44 43 41 39 38 37 36
39 39 38 38 38 37 37 36 35 34 34 33 32 32 33 35 36 37 38 37 37 36 33 29 27 27 26 30 33 32 32 32 31 31 30 31 31 32 32 33 33 33 34 34 33 34 35 36 37 37 39 43 50 56 60 61 62 63 66 69 72 75 77 75 75 76 75 73 71 69 70 69 64 60 56 55 54 54 54 53 51 47 44 42 41 40 39 38
39 39 38 38 38 37 37 37 36 36 35 34 33 32 33 34 35 37 38 38 38 38 35 30 27 28 27 29 31 33 33 33 31 31 32 33 33 34 34 35 35 35 37 37 37 38 40 40 41 40 39 39 43 50 58 62 63 64 67 69 71 73 75 75 74 75 75 74 73 70 71 71 66 61 59 57 56 56 57 56 54 52 48 45 43 40 40 42
40 39 38 38 38 37 37 37 37 37 36 34 33 33 33 34 35 37 39 39 38 38 36 31 28 28 28 29 30 32 33 33 32 32 32 34 35 36 36 37 37 37 39 40 41 42 43 44 44 43 43 41 41 45 53 63 65 64 67 70 70 69 72 74 73 72 73 74 73 70 72 73 68 63 62 60 58 59 59 58 57 54 52 49 45 42 42 44
40 39 38 38 38 37 37 37 37 37 37 36 34 32 32 33 34 36 38 38 38 38 35 31 29 29 29 30 30 32 33 33 34 35 35 35 36 37 37 38 39 39 40 41 42 44 45 46 46 45 44 44 43 43 49 58 64 63 65 69 69 67 67 70 71 69 69 70 70 68 72 75 70 66 64 62 60 60 59 59 59 56 54 53 49 46 46 46
39 39 38 37 37 37 37 37 37 38 38 37 36 34 34 35 35 36 37 37 38 37 35 31 29 29 29 30 31 32 33 34 35 37 38 38 38 37 36 37 39 40 41 41 43 45 46 46 47 46 44 44 44 43 44 48 58 61 61 64 66 65 63 64 66 66 64 64 65 66 71 75 72 69 66 64 62 62 60 59 62 60 54 52 50 48 47 48
39 39 38 37 37 38 37 38 38 38 38 38 38 37 36 37 37 36 35 36 36 33 33 32 29 28 29 30 31 32 32 34 36 38 40 40 39 38 36 37 38 39 39 41 43 45 47 47 47 45 43 42 42 42 42 42 53 60 59 60 63 64 62 59 59 61 59 59 61 63 69 74 73 70 68 66 64 64 62 60 62 63 57 54 53 51 50 49
38 38 38 37 37 38 38 38 39 40 40 39 38 37 37 37 37 34 30 32 34 31 29 30 28 27 28 29 30 31 32 34 36 39 42 42 41 39 37 38 39 39 39 40 42 44 46 47 45 42 41 40 40 40 40 41 50 58 58 59 61 62 62 59 56 57 56 56 57 59 67 74 73 70 68 66 65 65 64 61 62 62 59 59 58 55 54 52
37 38 38 38 38 38 39 39 40 41 42 42 41 40 40 39 38 36 31 29 31 29 27 26 27 27 27 28 29 30 32 33 34 37 40 42 41 40 39 39 39 39 40 41 41 43 45 45 42 39 38 37 38 38 38 41 47 54 56 58 60 60 60 58 55 54 55 56 57 57 64 72 72 70 68 67 65 65 64 62 62 60 58 60 60 57 57 56
37 37 38 39 39 39 39 40 41 42 44 44 44 43 42 41 39 36 34 30 29 28 26 24 25 26 27 29 30 32 33 34 34 34 37 39 40 41 41 40 40 40 41 42 42 43 44 42 38 37 36 36 37 37 36 39 44 50 54 56 59 58 57 57 53 51 52 54 57 57 61 70 71 67 66 65 64 63 63 61 61 60 58 59 60 60 59 59
37 37 38 40 40 40 40 41 42 43 45 45 46 45 44 42 39 34 32 31 29 27 25 23 24 25 26 28 30 32 33 34 34 34 36 38 39 41 41 40 41 41 40 40 41 41 40 37 35 35 35 35 36 36 35 37 41 45 50 54 57 56 55 55 51 48 48 51 56 58 60 67 67 63 63 63 62 62 62 60 58 59 59 57 59 61 60 61
37 37 38 40 40 40 41 42 43 45 46 47 47 47 45 43 38 33 30 29 28 26 23 22 22 24 25 27 29 31 32 33 34 35 37 40 43 43 42 40 39 37 36 36 38 37 34 33 33 34 34 34 35 34 34 36 37 41 46 50 53 54 53 52 48 45 46 49 54 57 60 66 65 62 64 64 64 64 63 60 57 58 61 60 59 61 61 61
38 38 38 40 41 41 42 43 44 46 47 49 49 48 46 42 37 32 29 28 26 25 22 22 22 24 27 29 30 32 33 34 35 36 38 41 45 46 45 43 38 34 32 34 35 33 31 31 32 32 33 34 34 32 32 34 35 38 41 45 49 51 52 51 47 46 46 48 51 55 59 64 64 62 64 63 63 66 64 60 58 58 61 62 61 62 63 63
39 38 38 40 41 42 43 44 46 47 49 50 51 49 46 41 36 31 29 27 26 24 23 24 25 27 28 30 33 36 37 38 37 37 39 43 45 44 43 41 37 32 31 34 34 31 28 28 29 30 31 33 32 31 32 33 34 36 35 38 45 49 50 49 47 47 46 46 50 55 57 62 64 62 61 60 61 65 64 61 60 60 60 61 61 62 62 63
39 38 39 41 42 42 43 44 46 48 49 51 51 49 45 40 35 31 29 27 25 24 24 25 26 27 28 31 34 37 39 40 41 41 43 45 43 41 39 38 35 31 31 33 29 25 25 25 26 29 31 32 31 30 30 30 30 32 31 31 39 46 48 48 47 47 45 44 51 56 57 60 64 62 58 55 55 60 64 62 62 62 60 60 61 62 63 63
39 39 39 41 42 43 43 44 46 48 50 52 52 49 44 39 34 31 28 26 24 24 24 25 26 27 29 30 32 37 40 42 44 44 43 40 35 35 36 35 32 29 28 29 24 19 20 22 24 27 29 30 30 30 30 29 24 24 26 27 33 42 47 47 47 47 47 49 52 56 58 59 63 63 59 53 51 56 63 64 65 64 61 61 61 63 64 65
39 39 39 41 42 43 44 44 46 48 50 52 51 47 43 38 33 30 28 26 24 24 24 26 28 30 31 31 33 39 42 42 41 36 30 26 24 27 29 28 27 25 26 26 22 18 18 20 22 24 25 27 29 30 31 31 25 21 21 23 28 36 43 45 47 47 51 57 54 53 59 60 61 64 61 55 52 55 63 65 65 65 62 61 61 62 63 64
40 39 39 41 42 43 44 45 47 49 50 51 51 47 42 37 33 30 27 26 25 24 25 27 29 30 32 35 39 41 40 37 31 23 18 17 15 16 18 19 22 24 25 23 19 17 18 19 20 21 22 24 28 30 32 33 29 24 21 21 26 32 37 41 45 45 51 61 55 50 58 61 62 64 62 59 55 53 59 62 62 62 61 60 60 60 62 61
40 40 40 41 43 44 44 45 47 49 50 51 52 48 43 38 33 29 27 26 26 26 27 29 30 32 35 40 43 41 35 29 22 17 16 16 14 13 13 16 19 20 20 18 17 18 19 18 19 20 21 23 27 29 32 34 31 26 23 22 26 33 37 38 41 43 49 59 55 50 55 59 62 64 61 60 59 55 56 59 58 58 58 58 59 59 60 60
41 40 40 41 43 44 44 45 47 49 50 52 52 50 44 38 32 28 26 26 26 27 30 31 31 35 38 41 42 37 29 23 19 16 15 15 14 13 14 16 17 17 16 16 19 20 20 18 18 19 20 24 27 27 30 34 32 28 24 23 26 34 39 39 40 40 45 53 53 50 53 55 58 62 60 59 60 59 58 56 53 55 55 55 57 58 58 58
41 40 40 41 43 44 44 45 46 48 51 52 53 51 45 38 32 28 26 26 26 28 30 31 33 36 38 41 43 35 25 22 19 16 15 15 14 14 15 16 15 15 15 16 18 18 17 17 16 17 19 23 26 26 28 33 34 31 27 24 26 34 40 41 39 38 40 47 51 52 51 52 55 58 57 58 59 60 59 55 52 52 51 49 51 52 54 56
41 40 39 41 42 43 43 44 46 48 51 53 53 51 45 38 32 27 25 25 27 29 31 31 35 38 38 41 43 34 26 23 20 17 18 17 16 15 15 15 14 14 14 14 14 14 14 14 14 17 18 22 26 26 29 35 36 33 30 26 27 34 39 41 40 36 35 42 52 55 51 50 53 53 50 52 53 55 57 56 53 48 43 42 45 51 55 56
41 40 39 40 42 43 43 43 45 47 51 53 53 50 44 38 32 28 25 25 28 30 30 32 37 40 40 41 38 31 26 24 21 19 19 18 17 17 14 12 12 12 13 12 12 13 13 10 12 16 17 21 26 27 32 39 38 34 34 30 28 32 38 41 39 36 33 37 51 58 50 47 50 47 45 47 46 48 53 55 52 45 42 44 48 53 55 54
41 40 38 39 42 43 42 42 44 47 50 53 52 49 43 37 32 28 26 26 29 30 31 35 38 39 41 39 33 28 26 24 22 21 20 19 18 17 14 13 13 12 11 10 10 12 12 9 11 14 14 18 25 27 31 38 38 34 35 34 31 32 38 41 40 37 34 34 46 55 50 45 46 42 41 44 42 42 46 50 49 45 45 50 53 53 52 51
40 39 38 39 42 42 41 41 43 46 50 52 52 49 43 37 31 27 26 27 30 31 32 36 38 37 38 35 30 28 27 25 23 22 20 19 18 17 16 16 16 15 13 12 9 10 10 10 13 14 12 16 23 26 28 34 37 33 32 36 36 33 37 42 41 38 36 34 41 53 52 46 43 41 43 43 39 37 38 41 44 44 47 52 53 51 49 49
38 38 38 39 41 42 41 42 43 45 49 51 51 49 44 37 30 27 26 27 29 30 32 34 35 34 32 28 26 26 25 24 23 22 22 20 18 19 19 19 19 18 16 14 9 6 6 8 13 15 15 16 20 26 27 30 35 33 31 36 39 35 35 42 42 37 36 36 39 49 55 48 42 42 43 41 38 35 33 34 36 37 41 47 49 49 48 49
38 38 38 39 40 41 42 42 43 44 48 51 51 49 45 37 30 26 25 26 27 29 31 31 31 30 26 21 22 23 24 25 25 24 23 21 19 18 17 18 21 20 18 15 10 7 6 6 8 10 14 17 20 24 25 27 33 35 33 36 39 37 35 39 41 34 33 37 38 44 54 52 43 43 41 39 40 39 37 36 34 34 36 39 43 44 44 46
38 38 38 38 40 40 41 42 42 43 46 50 50 49 45 39 31 25 23 24 26 28 30 30 30 27 22 18 19 22 24 27 27 26 25 23 22 21 19 19 23 23 19 17 16 15 12 9 7 7 8 12 18 22 24 27 31 34 33 34 37 39 37 38 38 33 31 35 36 42 53 53 46 43 42 41 44 45 42 42 41 39 38 37 39 40 40 42
38 38 37 38 39 40 41 41 41 41 44 48 50 49 46 41 32 25 22 23 25 26 28 28 28 25 18 15 17 20 23 26 27 27 26 25 25 25 25 22 23 27 24 20 21 20 17 12 7 6 5 7 14 20 25 27 30 33 33 34 36 39 40 37 33 29 30 33 33 40 53 55 47 44 44 42 44 46 44 44 45 45 43 41 39 39 39 39
37 37 37 38 39 39 39 40 40 40 43 46 48 48 47 42 33 24 21 22 23 25 26 26 26 24 18 13 15 19 22 25 26 26 27 27 26 26 26 22 21 25 25 23 23 21 17 13 9 6 3 5 11 17 24 28 29 33 35 35 37 39 39 35 29 24 27 31 31 38 52 55 46 43 45 43 43 45 44 43 46 49 47 41 39 39 38 38
37 37 37 38 39 39 39 39 39 39 41 45 46 46 44 41 34 25 21 22 22 23 25 23 24 24 19 13 14 18 22 24 26 27 27 28 28 27 27 25 23 21 22 22 21 18 15 12 9 8 6 2 9 16 23 28 30 31 34 35 36 38 37 34 30 26 27 31 32 39 51 55 47 45 47 45 43 42 39 39 45 49 45 38 36 38 38 38
37 36 36 37 38 38 39 39 39 38 40 42 45 45 41 38 35 27 22 21 21 21 23 22 21 20 17 14 14 17 21 22 24 26 26 26 28 28 28 27 26 23 20 20 18 16 13 12 10 9 8 4 8 15 21 26 28 29 32 33 36 37 36 34 33 29 28 32 34 39 50 53 49 48 49 47 43 39 37 40 46 48 44 38 37 39 38 36
37 36 36 37 38 38 39 39 39 38 39 41 43 44 41 38 35 29 24 21 19 19 21 22 20 18 15 14 14 15 18 21 23 24 24 24 26 26 27 26 24 20 18 17 15 15 13 11 10 9 7 6 10 15 23 28 29 30 32 33 36 38 36 37 35 27 26 32 35 40 48 50 49 48 48 47 43 39 39 44 48 48 44 40 39 38 36 31
36 36 36 36 36 38 39 40 40 39 39 41 42 42 41 40 37 31 25 21 18 17 19 20 18 16 15 14 14 15 17 21 25 24 23 24 25 26 28 28 23 20 20 17 13 12 13 10 10 10 9 9 13 19 25 27 28 30 31 32 37 38 38 39 32 23 27 34 38 43 46 48 50 47 44 45 43 38 38 43 49 50 45 40 38 37 33 29
36 36 37 36 35 35 38 39 39 38 38 39 41 41 40 40 38 33 25 20 18 16 16 18 17 15 15 14 14 16 17 19 23 23 22 24 26 25 26 27 24 22 23 20 14 12 11 10 9 9 9 9 15 18 19 21 22 24 25 29 34 37 40 39 29 21 27 35 39 42 43 47 51 47 44 45 41 35 36 41 47 48 44 40 38 36 32 29
37 36 37 36 34 34 37 38 38 37 37 37 39 40 39 37 36 34 28 20 17 15 15 17 17 15 14 14 15 17 18 20 22 21 20 22 24 23 23 23 21 20 19 17 13 11 11 10 7 6 7 6 11 13 13 16 18 20 22 27 34 38 41 38 27 21 26 32 36 39 40 43 44 42 44 45 40 38 41 43 45 44 40 39 38 36 32 29
38 37 37 36 33 33 37 38 38 38 36 36 38 39 39 36 33 33 31 24 17 14 14 15 16 16 15 15 16 17 18 21 21 19 18 19 21 22 21 20 18 18 18 13 10 12 14 10 4 4 5 2 3 4 7 12 13 16 21 29 36 39 38 33 26 22 24 27 31 35 38 40 40 41 46 45 41 42 43 44 44 41 37 36 35 35 35 32
38 37 36 34 31 31 35 37 37 37 36 34 36 38 38 36 32 29 31 29 23 16 14 14 14 15 16 16 17 16 17 20 20 19 18 16 17 18 18 17 18 18 18 15 13 16 17 10 2 2 5 4 2 2 2 8 11 16 22 30 36 36 31 28 25 21 18 19 24 28 31 37 43 47 48 45 43 43 43 44 44 42 39 37 35 36 36 34
37 36 34 31 29 29 33 36 36 37 36 34 34 36 37 36 33 28 27 29 27 21 17 15 14 14 13 13 14 15 15 17 18 18 18 16 16 16 16 18 20 19 18 17 16 16 16 10 2 2 3 6 3 2 2 4 9 14 21 29 35 35 30 27 24 19 13 15 21 21 22 30 41 47 50 49 48 47 46 44 42 41 39 37 37 38 37 35
Wind_Direction
360 352 343 334 325 317 311 304 298 292 286 281 276 272 268 265 262 261 260 259 259 259 258 258 257 256 255 254 254 253 253 253 253 252 251 250 250 250 249 248 248 248 248 248 248 247 247 247 247 246 246 246 246 246 245 245 246 246 245 245 244 242 241 241 241 241 241 237 232 226 224 223 224 225 220 219 208 193 206 213 211 219 220 223 229 228 229 233
8 1 353 344 334 325 317 310 305 299 294 288 284 280 275 272 268 265 263 260 259 259 258 258 258 257 256 255 254 254 254 254 254 253 252 251 251 251 250 250 249 249 248 248 247 247 247 247 246 246 246 245 245 244 244 245 245 246 246 245 244 244 243 244 244 245 244 240 237 234 233 231 231 231 220 219 214 198 200 209 210 214 218 223 227 228 230 232
10 7 1 353 344 335 325 316 309 304 300 295 291 287 283 279 275 272 269 267 265 263 261 260 258 257 256 255 254 253 253 253 253 253 253 251 250 250 250 250 249 249 249 249 248 247 247 247 246 246 245 245 244 243 242 243 244 245 247 246 244 245 246 245 245 246 245 243 240 237 235 234 233 235 222 217 216 208 202 207 212 214 216 222 225 227 229 230
8 6 4 359 352 343 335 326 317 310 304 300 296 293 289 286 283 280 277 274 272 269 266 264 262 261 259 258 256 255 254 253 253 253 253 252 252 251 250 250 249 249 249 249 248 248 247 247 246 246 245 245 244 243 242 241 243 244 246 247 246 248 248 246 245 245 246 245 243 238 235 235 233 237 232 218 216 214 208 209 216 218 219 221 224 228 230 230
7 6 4 0 356 350 343 336 329 321 313 305 300 296 292 289 286 283 281 278 275 272 269 268 266 264 262 260 259 258 256 255 255 256 256 256 256 255 253 252 250 249 249 248 248 248 247 247 246 245 245 244 244 243 243 241 241 242 244 247 247 248 248 248 246 245 246 247 244 241 235 233 234 238 238 225 219 217 214 218 227 230 228 226 227 231 234 236
8 6 4 1 357 353 349 343 338 331 323 315 307 300 294 289 286 283 280 277 274 272 270 269 267 266 264 262 261 260 258 257 257 258 259 259 259 258 257 255 253 252 250 249 249 248 248 247 246 245 244 244 243 243 242 241 241 241 242 244 246 246 247 247 246 245 246 246 245 242 235 232 232 233 234 230 225 221 220 228 238 240 238 235 234 237 240 241
9 7 5 3 0 357 354 349 344 338 331 324 315 307 299 292 287 283 280 277 275 273 271 269 267 265 264 263 262 261 261 261 261 261 260 260 259 259 259 258 256 256 254 253 251 250 248 248 247 246 245 243 243 242 241 240 240 241 241 242 244 245 246 246 246 245 245 245 245 243 239 234 231 230 232 233 231 227 226 233 238 238 238 235 233 236 239 239
10 8 7 6 4 1 358 354 350 344 338 331 323 315 308 301 295 289 284 280 277 275 273 271 268 266 265 264 263 262 261 263 265 265 264 263 263 262 261 260 259 258 257 256 255 253 251 249 248 246 245 244 243 242 241 240 239 241 241 240 241 243 244 244 244 244 243 243 244 244 241 234 228 228 232 235 234 232 231 237 236 228 228 228 227 232 236 234
12 10 9 8 6 4 1 357 353 348 342 335 328 321 315 310 303 298 293 288 284 279 276 273 271 269 268 267 266 264 263 264 265 267 268 268 267 267 266 264 262 261 259 258 256 255 253 252 250 248 246 245 243 242 241 240 239 240 241 239 239 240 241 241 241 241 241 241 241 243 242 235 227 225 228 231 233 232 228 230 231 224 226 230 230 234 236 234
12 11 10 9 7 5 2 358 355 350 345 340 334 328 323 317 310 304 298 293 288 284 280 276 273 270 268 267 266 265 265 267 268 270 273 274 274 274 273 271 268 266 264 262 259 257 254 253 251 250 248 245 244 243 241 241 239 239 239 239 238 238 238 239 239 239 239 239 238 239 241 237 227 224 226 226 229 230 220 217 221 218 223 231 232 233 234 236
12 11 10 9 7 5 2 359 355 352 348 344 340 335 331 325 319 313 305 297 289 283 280 278 276 275 272 268 265 267 270 271 273 276 279 280 281 282 282 281 277 274 272 269 266 263 259 256 253 251 249 247 245 243 242 241 239 237 237 237 237 237 237 237 238 238 237 238 237 237 239 239 232 226 224 223 225 228 222 215 213 211 215 224 228 227 229 235
12 11 10 9 8 5 2 359 356 353 349 346 342 337 333 328 323 318 313 306 296 287 281 278 277 278 276 271 268 270 274 275 278 281 281 283 285 287 286 284 283 280 280 279 276 270 265 261 257 254 251 249 247 245 243 241 240 237 237 236 236 236 236 236 237 237 237 236 235 235 236 238 235 226 221 222 221 223 227 221 211 210 214 221 226 226 229 236
10 10 10 9 7 5 1 358 355 353 349 346 342 337 333 328 324 319 315 311 304 296 288 282 277 276 274 270 270 272 276 279 281 282 282 284 285 286 285 283 281 280 281 282 279 275 271 268 264 259 255 252 249 246 243 241 240 239 237 237 236 235 235 235 236 237 237 236 235 232 232 234 234 225 217 220 219 216 223 223 214 209 209 216 223 228 233 239
8 8 8 8 6 4 1 358 356 353 349 346 342 337 333 328 324 319 316 312 306 301 296 289 281 277 271 266 268 272 275 279 281 284 285 286 285 285 284 282 279 278 278 278 277 276 275 275 272 267 262 257 252 248 245 241 239 239 238 237 236 235 235 234 235 236 237 237 235 232 231 233 233 227 215 215 219 215 217 222 221 213 209 215 223 229 236 238
6 5 6 6 5 3 0 358 355 353 350 347 343 338 334 329 325 319 315 310 305 301 298 292 284 279 271 265 267 270 273 277 280 283 285 285 285 284 284 281 278 275 274 274 275 275 276 277 277 275 271 265 258 252 247 242 238 237 237 236 236 236 235 233 233 234 235 236 236 233 233 233 231 228 219 212 216 217 217 221 225 221 215 219 224 229 234 234
4 3 3 4 4 2 359 357 355 353 351 348 344 339 335 330 325 320 314 309 305 302 299 295 287 280 275 269 268 269 271 274 278 281 284 285 286 285 284 281 277 274 271 271 272 273 275 275 276 276 276 274 267 258 249 244 239 235 236 235 235 237 235 233 232 232 233 234 234 233 234 234 230 228 225 218 214 216 219 221 224 224 218 218 222 226 230 231
2 1 1 1 1 1 359 356 354 352 350 348 344 339 335 331 326 320 314 309 305 301 298 297 290 281 278 275 272 272 273 275 277 278 280 282 284 285 285 281 277 274 272 271 270 271 271 271 272 274 275 277 277 269 255 244 239 236 235 235 233 235 235 234 232 231 232 232 232 232 234 235 232 229 228 224 218 216 217 219 224 224 219 216 218 222 226 228
0 359 359 358 359 359 358 355 354 352 350 348 345 340 335 331 326 319 313 308 304 300 300 299 294 287 282 279 279 279 279 279 278 277 277 278 280 282 282 280 276 274 272 271 270 269 268 268 269 271 275 279 280 279 267 249 240 237 235 235 233 232 234 234 231 229 229 231 230 230 232 234 232 230 229 227 225 222 218 217 221 223 219 216 217 220 223 226
359 358 357 356 356 357 357 355 354 352 350 347 345 342 337 332 328 323 317 310 305 304 303 301 297 291 286 284 283 283 284 284 283 282 280 279 280 280 278 276 275 273 272 271 271 270 269 269 269 271 276 280 279 279 278 258 240 235 233 233 233 230 231 232 232 228 227 229 230 229 231 233 232 230 229 228 227 227 223 216 217 219 217 216 218 221 223 226
358 357 356 354 354 355 356 355 353 352 351 348 345 342 337 333 330 326 320 311 307 307 304 302 299 293 289 287 287 288 289 288 287 285 284 283 282 281 278 275 273 273 273 273 273 272 272 270 270 274 275 277 275 274 278 262 239 232 229 230 232 230 228 228 230 228 225 227 229 228 230 231 232 231 229 229 228 226 223 217 215 217 218 221 225 227 228 229
356 355 354 353 352 353 355 354 353 352 351 349 347 344 339 335 331 328 320 309 307 307 304 302 299 293 289 288 289 291 292 291 290 289 287 286 286 284 280 276 272 273 275 275 275 274 273 272 271 275 274 273 271 270 273 260 238 230 227 226 228 230 228 225 225 225 223 224 226 227 229 228 229 231 230 230 230 227 223 217 215 216 218 224 229 231 231 230
355 354 353 352 351 351 353 354 353 352 351 350 348 346 342 338 333 329 324 313 308 308 307 303 299 295 292 291 291 290 290 291 292 291 290 289 289 287 283 279 276 275 276 276 276 277 275 275 275 274 272 268 266 267 269 258 240 230 226 224 225 227 228 225 222 222 221 220 220 222 227 227 227 228 229 229 230 230 227 219 216 218 219 223 226 229 230 231
353 353 352 351 350 350 352 353 353 352 351 350 349 347 344 340 336 332 327 322 318 316 313 307 301 298 296 296 294 292 291 291 291 290 289 289 288 286 283 281 279 277 277 277 277 276 276 277 275 269 266 263 260 262 261 252 240 232 228 225 223 222 226 226 221 219 220 219 217 217 223 226 225 225 226 227 226 227 229 224 219 218 219 223 226 227 229 231
351 353 351 350 349 350 351 352 353 353 352 351 349 348 345 342 339 335 330 327 326 322 318 312 307 303 300 299 297 294 292 290 287 284 284 285 283 282 282 281 279 277 277 278 276 274 274 274 271 266 263 259 256 256 251 244 240 234 229 227 224 220 222 224 220 217 219 219 216 215 219 224 224 223 223 224 223 223 226 228 223 217 215 220 225 226 229 231
350 352 351 349 349 349 350 352 353 353 352 351 350 349 347 345 342 338 334 331 328 324 321 315 310 306 302 299 297 294 292 289 287 285 286 288 286 284 282 281 280 277 275 277 275 273 273 271 267 264 260 255 253 251 243 239 239 234 230 228 225 221 220 222 218 215 217 217 215 213 217 221 221 220 221 221 222 222 223 224 223 216 212 215 221 225 228 231
348 351 351 350 349 349 350 352 352 353 353 352 351 350 348 346 344 340 337 335 332 328 324 319 315 313 309 305 304 302 300 298 296 296 296 296 294 292 287 284 282 277 276 278 277 275 274 271 266 261 256 253 251 247 238 234 233 231 228 227 226 222 221 220 215 212 213 214 212 210 214 219 218 217 219 219 220 222 221 220 219 216 213 215 221 226 229 231
345 349 350 350 349 349 350 351 352 353 354 353 352 351 349 348 346 342 340 339 336 332 329 326 323 321 317 314 313 310 308 307 304 301 300 299 296 293 290 288 286 281 281 283 282 282 280 272 265 258 252 249 247 243 236 230 229 226 221 224 225 222 222 220 215 211 210 210 210 207 209 216 215 212 215 217 220 222 220 216 215 217 217 218 222 228 231 232
344 347 349 349 349 350 350 351 352 353 354 354 353 352 350 349 347 344 343 342 339 335 332 328 325 322 319 319 316 313 313 310 305 301 298 296 294 289 287 286 285 284 284 284 285 286 279 268 261 252 244 243 242 240 230 222 226 224 216 219 222 221 221 220 217 213 207 208 209 203 204 213 214 209 209 213 217 221 221 216 215 218 220 220 221 225 229 232
342 345 347 348 349 350 351 351 351 353 354 354 353 352 351 350 347 345 346 344 339 336 334 329 326 324 320 320 318 315 314 309 305 302 298 294 287 280 280 281 281 280 279 280 283 283 274 265 261 251 245 246 244 240 226 213 214 215 210 214 217 218 219 219 219 212 204 208 210 201 201 212 215 208 204 205 209 217 220 219 217 220 221 222 222 224 226 229
341 343 346 347 348 350 350 350 351 353 354 355 353 352 353 351 349 349 348 345 342 339 337 333 329 325 321 321 320 318 318 313 309 308 304 298 284 274 277 278 276 274 272 275 278 275 265 258 257 253 252 253 246 237 224 210 204 202 202 207 210 214 217 219 220 212 206 212 211 200 200 210 214 208 201 200 204 213 220 221 220 220 220 221 224 226 227 228
340 342 344 346 347 349 349 349 351 353 354 354 354 354 355 354 352 352 349 345 345 343 340 337 332 329 327 326 325 325 323 319 316 317 318 315 302 286 283 280 278 275 271 271 272 270 261 250 247 249 253 250 241 233 222 210 203 200 196 198 202 207 212 216 217 214 211 213 207 197 199 208 214 209 200 198 201 208 217 220 221 221 220 220 223 226 229 230
340 341 344 345 347 349 349 349 351 352 353 355 355 356 356 355 354 352 349 346 347 345 342 341 337 335 334 331 331 332 331 326 323 327 330 328 319 305 297 292 287 280 273 271 269 269 266 253 243 246 250 243 235 230 221 209 205 203 197 197 201 202 203 207 212 214 214 211 202 193 196 206 214 211 203 201 203 206 214 219 222 223 222 221 222 225 229 231
340 341 343 344 346 348 348 349 351 351 352 355 356 357 357 356 354 352 350 349 349 347 344 345 343 340 338 335 336 339 339 335 333 336 338 333 322 313 308 304 296 285 280 279 275 273 270 257 242 241 244 236 230 228 219 208 203 203 198 199 205 202 201 203 206 211 216 211 199 189 195 205 212 213 207 204 208 210 212 216 220 223 224 223 223 225 227 231
340 341 342 344 346 348 348 349 350 350 351 354 357 357 357 357 354 355 355 351 350 350 348 348 347 344 342 340 342 345 347 344 343 343 343 337 331 327 320 315 307 294 287 283 280 278 271 260 247 244 242 230 224 223 216 207 204 202 197 201 208 204 202 202 202 208 215 212 198 193 205 209 206 210 209 206 211 215 215 213 213 218 223 224 227 228 228 229
340 340 342 344 346 348 349 349 349 348 349 353 357 357 356 357 357 358 357 351 352 354 353 352 350 348 348 346 346 349 353 353 352 349 347 346 346 343 332 322 315 304 294 286 283 279 272 264 252 247 240 225 217 215 211 209 210 203 194 203 213 207 204 202 201 204 211 213 201 198 215 217 203 206 208 206 213 217 217 215 211 213 216 219 226 227 226 226
339 340 341 343 346 348 349 348 346 347 348 353 358 358 356 357 358 358 356 354 355 357 357 356 355 353 352 351 352 355 0 4 3 0 360 3 7 6 358 345 331 319 305 294 286 277 275 270 252 245 240 224 214 212 210 210 210 201 193 204 215 208 204 200 198 201 207 214 204 200 217 219 201 199 200 200 208 211 213 215 212 209 209 213 221 224 222 224
338 339 340 342 345 348 348 347 345 346 349 354 358 358 356 356 357 357 356 357 358 359 360 0 0 358 354 357 5 9 14 17 17 16 14 14 15 14 12 7 358 347 329 313 297 273 266 260 249 247 242 225 213 211 212 208 208 202 192 201 211 206 201 197 195 200 205 211 205 202 215 215 196 189 189 191 199 203 208 213 207 205 210 216 222 222 220 224
337 337 340 343 346 347 347 346 346 347 350 355 358 358 357 356 355 355 357 359 0 3 3 1 2 1 358 6 19 23 25 27 25 23 18 12 9 6 7 8 3 1 353 340 321 284 264 247 240 237 227 219 213 211 210 206 207 207 195 198 206 202 198 195 196 201 203 207 204 203 211 209 191 181 180 182 188 194 202 206 201 202 212 219 222 222 220 223
336 337 340 343 345 346 346 347 348 348 351 355 358 358 357 356 354 355 360 2 3 7 6 1 0 2 4 14 25 26 27 26 23 22 17 10 6 3 6 8 5 5 1 351 338 301 267 239 236 234 222 215 212 210 208 204 206 207 201 201 204 200 196 196 197 200 203 205 205 204 208 204 184 174 177 178 181 186 193 198 201 206 214 220 222 222 221 222
336 338 341 342 344 346 347 348 349 350 352 354 356 358 358 357 354 356 2 5 7 9 7 2 1 5 11 18 22 21 21 19 18 16 12 8 5 7 8 5 3 2 357 351 340 314 287 256 249 246 231 222 216 210 205 202 204 206 205 205 204 200 196 195 196 199 202 206 206 205 206 199 180 169 173 178 184 190 190 190 198 210 215 218 220 221 221 222
336 337 340 342 343 346 348 348 349 351 353 354 355 357 358 357 356 358 3 6 9 9 5 2 4 8 14 17 15 16 16 16 15 13 10 6 4 6 3 360 2 359 353 351 344 338 338 323 291 280 258 228 218 212 202 198 202 203 204 205 203 200 197 195 194 195 200 205 206 206 204 195 180 171 171 178 187 193 192 190 195 206 209 209 214 218 220 223
335 336 340 341 343 346 348 348 348 352 354 355 355 356 358 358 356 356 3 7 9 9 6 3 5 10 14 13 9 11 12 11 10 10 8 6 4 359 351 352 0 360 356 355 353 358 5 358 334 313 287 210 203 206 199 196 199 197 197 201 202 201 198 194 190 189 198 203 203 206 201 190 181 178 177 181 188 189 189 191 195 201 203 204 210 214 217 221
333 336 340 342 343 345 347 347 348 351 356 357 356 356 356 358 357 355 1 7 8 9 8 5 6 9 11 8 3 4 6 6 6 7 6 6 4 357 353 357 3 3 5 7 7 12 15 8 5 4 330 193 186 192 191 193 197 195 194 197 200 200 197 195 193 191 196 200 203 206 198 186 185 191 185 181 183 184 186 190 196 201 201 201 207 211 214 218
333 337 341 343 342 343 346 347 347 350 355 357 356 356 354 354 356 356 359 7 9 8 9 8 7 6 3 357 356 1 7 8 6 6 6 6 5 2 1 7 15 20 25 29 29 30 26 16 24 40 39 153 181 184 187 191 195 194 193 194 195 196 196 195 198 199 199 200 203 204 195 186 190 200 193 183 181 181 184 191 197 200 199 199 206 212 215 216
334 337 341 343 341 341 345 346 345 348 353 355 356 357 353 350 354 357 358 6 9 7 7 7 7 6 359 353 358 4 11 14 9 7 7 5 7 5 1 6 23 38 45 46 45 44 40 36 43 50 47 79 156 171 180 187 190 190 192 192 193 196 197 195 198 201 200 201 202 200 194 189 193 198 193 184 179 178 184 191 195 198 198 199 206 212 216 214
336 338 341 342 340 341 344 345 345 347 351 353 355 357 354 349 353 359 360 3 7 4 2 4 6 7 2 360 5 6 9 8 2 1 5 6 7 7 1 4 21 37 43 40 37 39 43 48 50 49 53 87 125 153 170 180 186 187 188 190 193 198 198 196 199 197 192 198 202 198 193 191 194 195 188 182 178 178 183 189 193 197 199 199 204 210 213 210
337 338 340 341 341 341 343 345 345 346 349 351 353 356 356 352 353 359 359 359 3 2 358 360 5 6 0 357 358 359 3 2 352 349 357 2 4 5 4 6 15 27 32 34 40 50 51 50 56 66 80 110 137 156 167 176 183 186 188 191 194 198 199 200 200 190 188 197 199 196 195 193 193 192 186 181 179 178 183 189 194 199 199 198 202 208 209 206
337 338 339 341 342 340 341 343 344 345 347 349 351 355 356 353 353 356 358 354 357 2 355 353 0 3 356 349 345 343 349 353 347 345 352 357 359 3 3 4 12 22 28 35 50 65 56 42 54 75 84 121 153 162 167 175 181 185 190 193 196 202 206 206 200 187 192 198 195 197 197 190 190 192 188 182 179 179 184 190 195 199 199 197 203 210 210 207
338 338 339 341 342 340 339 341 342 343 345 346 348 352 355 355 352 353 357 357 354 357 355 350 353 355 351 348 342 336 333 336 340 345 352 355 356 0 2 5 14 21 24 34 53 60 45 30 42 68 69 112 152 161 170 178 182 185 189 195 201 205 207 206 197 189 196 196 195 201 195 183 187 195 189 181 178 180 187 191 193 196 199 199 203 209 211 209
338 338 338 338 340 339 338 340 341 341 342 344 346 348 353 356 352 348 353 1 0 355 353 352 350 347 345 345 344 338 332 330 335 342 348 353 355 357 1 9 21 25 24 31 40 32 24 15 19 67 56 66 163 171 180 183 189 195 194 197 201 202 201 198 191 189 192 190 194 201 195 189 194 195 188 183 181 182 189 197 198 197 198 199 200 204 209 210
338 339 338 337 338 338 336 337 339 339 340 342 344 345 349 354 355 348 349 358 2 357 351 352 352 349 346 343 342 342 337 333 337 345 350 356 0 356 354 4 17 22 22 23 18 15 17 15 8 76 46 17 356 4 154 171 185 199 201 199 199 199 199 196 190 186 190 198 203 200 197 202 205 199 193 188 186 189 195 201 204 204 202 202 201 202 207 210
339 339 338 336 337 339 337 336 337 338 338 340 341 344 345 349 354 354 350 351 354 353 349 350 351 352 351 345 340 342 340 335 337 347 356 4 9 3 354 357 8 16 18 18 15 13 18 27 88 166 17 18 27 9 33 137 174 196 203 202 200 200 203 205 199 193 202 222 219 208 203 207 208 207 206 197 189 193 200 204 208 209 205 203 205 206 208 212
Height
5777 5775 5773 5772 5770 5769 5767 5766 5765 5764 5763 5762 5761 5761 5760 5759 5759 5759 5758 5758 5758 5758 5759 5759 5759 5760 5761 5762 5762 5762 5762 5762 5762 5763 5764 5765 5766 5766 5768 5769 5770 5770 5771 5773 5775 5777 5778 5779 5780 5782 5784 5787 5789 5792 5794 5794 5795 5795 5796 5796 5794 5797 5802 5807 5812 5815 5820 5825 5829 5833 5837 5839 5841 5843 5844 5846 5847 5847 5847 5845 5846 5847 5849 5852 5853 5855 5856 5858
5777 5774 5772 5770 5768 5766 5765 5764 5762 5761 5761 5760 5759 5758 5758 5757 5756 5756 5755 5755 5754 5754 5754 5755 5755 5755 5756 5757 5757 5757 5757 5757 5757 5757 5758 5759 5759 5760 5761 5762 5763 5764 5765 5766 5768 5770 5771 5772 5774 5776 5778 5780 5782 5786 5787 5788 5789 5788 5790 5789 5788 5794 5800 5805 5808 5811 5816 5820 5825 5828 5832 5835 5837 5839 5839 5840 5842 5842 5842 5841 5842 5843 5846 5848 5849 5851 5854 5856
5776 5774 5771 5769 5767 5765 5763 5761 5760 5759 5758 5757 5756 5756 5755 5755 5754 5753 5753 5752 5752 5751 5751 5751 5751 5751 5751 5752 5752 5752 5752 5752 5751 5751 5752 5752 5753 5754 5754 5755 5756 5757 5759 5760 5761 5763 5764 5765 5767 5769 5771 5773 5776 5778 5780 5783 5783 5783 5784 5781 5784 5792 5796 5800 5803 5806 5811 5815 5819 5823 5827 5830 5833 5834 5834 5835 5837 5838 5837 5838 5840 5840 5841 5844 5845 5848 5850 5853
5775 5772 5770 5768 5765 5763 5761 5760 5758 5757 5756 5755 5754 5753 5753 5752 5751 5751 5750 5750 5749 5748 5748 5748 5747 5747 5747 5747 5747 5747 5747 5746 5746 5746 5745 5746 5747 5748 5748 5749 5750 5751 5752 5753 5754 5755 5757 5758 5760 5762 5764 5766 5768 5770 5774 5777 5777 5778 5776 5776 5784 5790 5790 5794 5798 5802 5806 5809 5813 5818 5822 5825 5828 5830 5829 5830 5831 5832 5834 5835 5837 5837 5838 5840 5842 5845 5846 5850
5774 5771 5769 5766 5764 5761 5759 5758 5756 5755 5754 5753 5752 5751 5750 5749 5749 5748 5747 5747 5746 5745 5744 5744 5744 5743 5743 5743 5743 5742 5742 5742 5742 5741 5741 5741 5741 5742 5742 5743 5744 5744 5745 5746 5747 5748 5749 5750 5752 5755 5756 5759 5760 5762 5767 5771 5770 5770 5771 5775 5781 5784 5783 5788 5794 5798 5800 5804 5807 5812 5816 5821 5825 5825 5825 5826 5826 5828 5833 5835 5836 5835 5836 5839 5840 5841 5843 5848
5774 5771 5768 5765 5762 5760 5758 5756 5754 5753 5752 5751 5750 5749 5748 5747 5746 5745 5744 5743 5742 5741 5741 5741 5740 5739 5738 5738 5738 5738 5737 5737 5738 5738 5737 5737 5736 5736 5735 5736 5737 5737 5738 5739 5740 5741 5741 5743 5745 5747 5748 5751 5752 5755 5760 5762 5762 5764 5768 5773 5775 5776 5778 5783 5788 5791 5794 5797 5800 5805 5812 5817 5819 5820 5821 5823 5824 5828 5834 5836 5835 5831 5832 5839 5840 5840 5842 5846
5773 5770 5767 5764 5761 5759 5757 5754 5753 5751 5750 5748 5747 5746 5745 5744 5743 5741 5740 5739 5738 5737 5737 5736 5736 5735 5734 5734 5734 5733 5732 5733 5734 5733 5732 5732 5731 5730 5730 5730 5730 5731 5732 5732 5733 5733 5734 5736 5737 5738 5739 5743 5745 5748 5752 5753 5755 5758 5763 5769 5769 5770 5772 5777 5781 5784 5788 5790 5793 5799 5805 5810 5813 5817 5818 5819 5822 5827 5831 5832 5831 5827 5828 5836 5838 5838 5840 5843
5772 5769 5765 5762 5759 5757 5755 5753 5751 5749 5748 5746 5745 5743 5742 5741 5739 5738 5737 5736 5735 5734 5733 5732 5732 5731 5730 5729 5728 5728 5728 5729 5728 5727 5727 5727 5726 5725 5724 5724 5725 5726 5726 5726 5726 5726 5728 5729 5729 5730 5731 5734 5736 5740 5743 5744 5747 5752 5758 5764 5764 5763 5765 5770 5773 5776 5781 5784 5788 5792 5796 5802 5808 5813 5814 5815 5819 5823 5826 5826 5826 5825 5824 5829 5833 5836 5838 5839
5771 5768 5765 5762 5759 5757 5755 5753 5751 5749 5747 5745 5743 5741 5740 5738 5736 5735 5734 5732 5731 5730 5729 5728 5727 5727 5726 5725 5723 5723 5725 5725 5723 5722 5722 5721 5721 5720 5719 5719 5719 5720 5720 5720 5720 5719 5721 5721 5721 5722 5724 5726 5728 5732 5734 5734 5741 5748 5752 5756 5756 5755 5757 5760 5763 5768 5773 5778 5783 5785 5788 5795 5803 5808 5807 5810 5815 5818 5822 5822 5821 5822 5821 5823 5828 5833 5835 5836
5770 5767 5764 5761 5758 5756 5754 5752 5750 5748 5746 5744 5742 5740 5738 5736 5734 5732 5730 5729 5728 5726 5725 5724 5723 5723 5722 5721 5719 5718 5720 5720 5718 5718 5717 5716 5715 5714 5714 5713 5713 5714 5713 5713 5713 5713 5713 5713 5713 5714 5716 5719 5721 5724 5725 5727 5737 5743 5743 5745 5746 5746 5748 5752 5755 5761 5766 5770 5776 5779 5781 5788 5797 5800 5799 5805 5811 5814 5818 5817 5816 5818 5819 5822 5825 5829 5832 5833
5770 5766 5763 5760 5757 5755 5752 5750 5748 5746 5743 5741 5739 5736 5734 5732 5730 5728 5727 5726 5724 5722 5721 5720 5719 5719 5718 5716 5713 5714 5715 5714 5713 5713 5712 5710 5709 5709 5708 5707 5707 5708 5707 5707 5706 5706 5706 5706 5706 5707 5708 5711 5713 5715 5717 5722 5730 5732 5732 5734 5736 5739 5742 5745 5748 5753 5759 5763 5769 5775 5777 5780 5787 5790 5793 5801 5807 5811 5814 5812 5812 5815 5817 5819 5822 5825 5827 5829
5769 5766 5763 5759 5756 5754 5751 5748 5746 5743 5741 5738 5736 5733 5731 5729 5726 5724 5722 5721 5719 5718 5717 5716 5715 5714 5713 5710 5708 5709 5709 5708 5708 5708 5706 5705 5704 5704 5703 5702 5702 5702 5701 5701 5700 5700 5699 5699 5699 5700 5701 5702 5704 5708 5711 5716 5720 5721 5723 5724 5727 5731 5733 5738 5743 5748 5752 5756 5765 5771 5770 5769 5774 5782 5790 5796 5802 5806 5808 5808 5808 5811 5814 5817 5820 5823 5824 5826
5769 5765 5762 5759 5756 5753 5750 5747 5745 5742 5739 5737 5734 5731 5728 5725 5722 5720 5717 5715 5713 5712 5711 5711 5711 5710 5709 5705 5702 5704 5704 5702 5702 5702 5701 5700 5700 5699 5698 5698 5697 5697 5696 5696 5695 5694 5693 5693 5693 5693 5694 5694 5697 5700 5703 5709 5710 5712 5716 5715 5719 5722 5723 5733 5739 5743 5746 5750 5760 5763 5759 5759 5767 5778 5788 5793 5796 5800 5801 5803 5804 5806 5810 5813 5816 5819 5821 5823
5768 5765 5761 5758 5755 5752 5749 5747 5744 5741 5738 5735 5732 5729 5725 5722 5719 5716 5713 5710 5707 5706 5705 5706 5706 5705 5704 5700 5698 5699 5698 5697 5697 5695 5695 5694 5694 5693 5693 5693 5692 5692 5691 5691 5690 5689 5688 5687 5687 5687 5688 5687 5689 5691 5694 5699 5701 5704 5706 5707 5711 5712 5717 5729 5734 5737 5740 5745 5754 5754 5749 5754 5764 5773 5783 5790 5792 5794 5796 5798 5799 5802 5805 5809 5812 5815 5817 5819
5768 5764 5761 5758 5755 5751 5748 5745 5742 5740 5736 5733 5730 5727 5723 5719 5716 5712 5709 5706 5703 5701 5700 5700 5700 5700 5699 5696 5694 5694 5693 5692 5692 5690 5689 5688 5687 5687 5687 5687 5686 5686 5686 5685 5685 5684 5682 5682 5681 5682 5682 5681 5682 5682 5685 5689 5693 5695 5696 5699 5704 5705 5712 5722 5725 5729 5734 5741 5747 5743 5742 5751 5760 5767 5777 5785 5788 5790 5792 5793 5795 5798 5802 5805 5808 5811 5813 5816
5767 5764 5760 5757 5754 5751 5747 5744 5741 5738 5735 5732 5728 5725 5721 5718 5714 5709 5705 5701 5698 5696 5694 5695 5695 5693 5693 5692 5690 5689 5688 5688 5687 5686 5683 5681 5681 5681 5681 5680 5680 5680 5679 5679 5678 5677 5677 5676 5675 5676 5676 5676 5676 5676 5677 5679 5683 5687 5687 5691 5697 5699 5706 5714 5718 5723 5729 5735 5737 5734 5737 5746 5754 5762 5770 5777 5783 5786 5787 5788 5790 5794 5798 5801 5803 5806 5809 5812
5767 5763 5760 5756 5753 5750 5746 5743 5739 5736 5733 5730 5726 5722 5719 5715 5711 5706 5701 5696 5693 5690 5688 5689 5689 5688 5687 5686 5685 5684 5683 5683 5682 5681 5679 5676 5675 5675 5674 5674 5673 5673 5673 5672 5672 5671 5670 5669 5669 5669 5670 5671 5671 5669 5667 5667 5673 5680 5681 5684 5691 5693 5698 5703 5710 5717 5722 5725 5727 5728 5732 5739 5749 5758 5764 5769 5776 5779 5781 5784 5786 5789 5793 5796 5799 5802 5804 5807
5765 5762 5759 5755 5752 5748 5745 5741 5738 5734 5731 5728 5725 5721 5717 5713 5709 5704 5698 5692 5689 5685 5684 5684 5683 5682 5680 5679 5679 5678 5677 5677 5676 5675 5674 5672 5671 5670 5669 5667 5666 5666 5666 5666 5665 5664 5662 5662 5663 5663 5665 5665 5665 5662 5658 5660 5668 5674 5676 5677 5682 5686 5688 5692 5700 5709 5714 5715 5719 5722 5725 5733 5743 5751 5757 5763 5768 5771 5776 5780 5782 5785 5789 5791 5794 5797 5799 5802
5764 5761 5758 5754 5750 5747 5743 5740 5736 5733 5729 5724 5721 5718 5714 5709 5705 5700 5693 5687 5684 5681 5679 5679 5678 5676 5674 5674 5673 5672 5671 5670 5668 5667 5666 5665 5665 5664 5664 5662 5660 5660 5659 5659 5657 5655 5654 5655 5656 5658 5661 5659 5658 5655 5651 5655 5662 5666 5668 5669 5672 5676 5679 5684 5691 5700 5706 5707 5710 5715 5720 5728 5736 5743 5750 5756 5761 5765 5770 5775 5777 5780 5784 5787 5790 5792 5795 5797
5762 5759 5756 5753 5749 5745 5742 5738 5734 5731 5727 5723 5718 5714 5710 5706 5701 5696 5690 5682 5679 5678 5675 5674 5674 5672 5670 5669 5668 5667 5665 5663 5661 5659 5657 5657 5657 5658 5658 5656 5655 5654 5653 5651 5649 5648 5647 5647 5650 5653 5654 5652 5650 5648 5645 5647 5651 5655 5659 5661 5663 5667 5671 5677 5684 5692 5699 5701 5704 5710 5715 5722 5729 5736 5743 5748 5753 5758 5763 5768 5771 5775 5780 5782 5785 5788 5791 5794
5761 5757 5754 5751 5747 5743 5740 5736 5732 5728 5725 5721 5717 5712 5708 5703 5699 5695 5691 5682 5676 5675 5673 5670 5669 5668 5667 5665 5664 5663 5660 5657 5655 5652 5650 5650 5649 5650 5650 5649 5649 5648 5646 5644 5642 5641 5639 5640 5645 5647 5645 5644 5643 5641 5640 5640 5642 5646 5649 5652 5656 5659 5664 5671 5676 5682 5690 5693 5698 5705 5709 5715 5722 5728 5735 5741 5745 5750 5757 5762 5765 5771 5777 5779 5782 5784 5788 5792
5759 5756 5752 5749 5745 5741 5738 5734 5730 5725 5721 5717 5713 5708 5703 5698 5693 5689 5686 5681 5675 5672 5671 5668 5666 5664 5663 5662 5661 5659 5657 5654 5652 5648 5646 5644 5643 5643 5643 5643 5642 5641 5639 5637 5636 5634 5633 5636 5640 5639 5637 5637 5636 5636 5635 5634 5636 5638 5641 5644 5648 5653 5659 5665 5670 5676 5681 5684 5691 5699 5702 5707 5715 5721 5727 5732 5737 5742 5751 5757 5760 5766 5772 5776 5778 5781 5784 5787
5758 5754 5750 5747 5743 5739 5735 5731 5727 5723 5718 5713 5708 5704 5699 5694 5689 5683 5679 5676 5672 5669 5667 5665 5663 5661 5659 5658 5656 5655 5653 5651 5649 5646 5643 5641 5639 5637 5636 5637 5635 5634 5632 5630 5629 5628 5628 5632 5632 5631 5631 5630 5630 5630 5629 5629 5630 5632 5635 5637 5640 5648 5654 5657 5665 5672 5675 5678 5685 5692 5695 5699 5706 5711 5717 5724 5731 5737 5744 5751 5756 5761 5767 5772 5775 5777 5780 5782
5756 5752 5748 5745 5741 5736 5732 5728 5724 5720 5715 5710 5705 5700 5696 5690 5686 5681 5675 5671 5668 5666 5664 5662 5660 5658 5657 5655 5653 5651 5650 5648 5646 5643 5640 5637 5635 5632 5631 5630 5629 5628 5627 5624 5622 5622 5625 5627 5625 5623 5624 5624 5624 5624 5623 5624 5625 5627 5630 5632 5636 5643 5647 5652 5661 5668 5670 5673 5679 5686 5688 5689 5695 5702 5709 5717 5724 5731 5737 5744 5750 5755 5762 5768 5771 5773 5775 5778
5754 5751 5747 5743 5739 5734 5730 5726 5721 5717 5712 5707 5702 5697 5692 5686 5681 5677 5673 5669 5666 5663 5662 5660 5658 5656 5655 5653 5650 5648 5646 5644 5641 5639 5636 5631 5627 5625 5624 5623 5622 5622 5620 5618 5616 5617 5621 5621 5618 5617 5617 5617 5618 5618 5619 5620 5621 5623 5625 5629 5633 5639 5643 5648 5657 5663 5664 5666 5673 5681 5680 5680 5688 5695 5702 5710 5716 5723 5731 5738 5743 5749 5756 5761 5764 5767 5770 5773
5752 5749 5745 5741 5736 5732 5728 5723 5719 5714 5709 5704 5698 5693 5687 5682 5678 5673 5670 5667 5664 5661 5660 5658 5656 5654 5651 5648 5646 5643 5641 5638 5635 5632 5628 5623 5619 5616 5614 5614 5614 5614 5613 5611 5610 5613 5615 5614 5611 5611 5611 5612 5612 5613 5615 5616 5616 5617 5621 5627 5631 5635 5640 5644 5651 5655 5656 5659 5668 5674 5673 5675 5683 5689 5695 5703 5708 5716 5725 5731 5737 5743 5749 5754 5757 5761 5764 5768
5750 5747 5743 5739 5734 5730 5725 5720 5715 5711 5706 5700 5694 5689 5683 5678 5674 5670 5667 5664 5661 5659 5657 5655 5653 5650 5647 5644 5640 5637 5634 5631 5629 5626 5621 5616 5612 5609 5606 5606 5606 5607 5606 5604 5605 5608 5609 5607 5606 5606 5606 5606 5607 5609 5612 5613 5612 5613 5618 5623 5627 5632 5636 5640 5647 5649 5651 5657 5662 5665 5667 5668 5673 5682 5691 5698 5703 5709 5718 5725 5731 5737 5744 5749 5753 5756 5759 5763
5748 5745 5741 5737 5733 5728 5723 5718 5713 5708 5703 5698 5691 5685 5680 5675 5671 5668 5665 5662 5659 5657 5655 5652 5650 5647 5644 5641 5637 5632 5629 5624 5621 5619 5614 5608 5605 5602 5600 5600 5600 5601 5600 5599 5602 5604 5602 5601 5601 5601 5601 5601 5603 5606 5609 5610 5608 5611 5616 5619 5623 5628 5632 5637 5642 5645 5651 5655 5653 5657 5662 5662 5665 5676 5686 5693 5698 5703 5710 5719 5726 5731 5738 5744 5748 5752 5755 5758
5746 5743 5739 5735 5730 5726 5721 5717 5712 5706 5701 5695 5689 5683 5678 5674 5670 5666 5663 5660 5657 5655 5653 5650 5648 5645 5642 5639 5634 5629 5625 5619 5613 5610 5607 5602 5600 5597 5595 5596 5596 5596 5596 5595 5598 5599 5597 5597 5597 5597 5598 5599 5601 5603 5605 5606 5606 5609 5613 5614 5618 5623 5627 5632 5635 5639 5646 5645 5644 5653 5659 5657 5660 5670 5679 5685 5691 5696 5703 5713 5721 5727 5734 5739 5743 5748 5751 5754
5744 5741 5737 5733 5728 5724 5719 5715 5710 5704 5700 5694 5689 5683 5678 5672 5667 5663 5660 5658 5655 5653 5650 5647 5644 5641 5638 5635 5632 5625 5619 5612 5606 5603 5600 5597 5596 5593 5591 5591 5592 5592 5591 5591 5593 5594 5593 5593 5593 5594 5596 5598 5598 5599 5601 5603 5604 5606 5608 5610 5614 5619 5624 5627 5629 5635 5637 5633 5637 5650 5655 5654 5655 5663 5672 5678 5685 5692 5699 5708 5715 5723 5729 5734 5738 5743 5746 5750
5741 5738 5735 5731 5726 5721 5717 5712 5707 5702 5698 5693 5687 5680 5674 5669 5664 5661 5658 5656 5653 5651 5649 5646 5641 5637 5633 5628 5625 5620 5613 5606 5601 5599 5596 5594 5593 5591 5589 5588 5588 5588 5587 5588 5589 5590 5589 5589 5590 5591 5593 5594 5595 5596 5598 5600 5601 5603 5605 5607 5610 5614 5620 5623 5625 5629 5628 5626 5634 5647 5653 5652 5650 5657 5668 5674 5681 5689 5696 5703 5711 5718 5724 5729 5734 5739 5742 5746
5739 5735 5732 5728 5724 5719 5715 5709 5704 5699 5696 5691 5684 5677 5671 5667 5662 5659 5657 5653 5651 5648 5646 5643 5638 5634 5629 5623 5618 5613 5607 5602 5598 5596 5594 5592 5591 5589 5588 5586 5585 5584 5584 5585 5586 5586 5586 5586 5587 5588 5589 5590 5590 5592 5595 5597 5599 5602 5604 5605 5608 5611 5615 5617 5620 5623 5623 5625 5635 5644 5650 5648 5647 5656 5668 5672 5678 5685 5692 5701 5708 5713 5719 5725 5730 5735 5738 5742
5736 5733 5730 5726 5721 5717 5712 5707 5702 5697 5693 5688 5682 5675 5669 5665 5661 5658 5655 5652 5649 5646 5642 5639 5635 5630 5625 5620 5614 5609 5604 5599 5596 5595 5593 5591 5589 5588 5586 5585 5583 5582 5582 5583 5583 5582 5583 5583 5584 5585 5585 5586 5587 5590 5593 5595 5598 5601 5603 5604 5606 5609 5611 5613 5616 5620 5622 5627 5635 5643 5644 5641 5644 5655 5665 5671 5676 5682 5689 5698 5705 5710 5715 5720 5727 5732 5736 5739
5734 5731 5728 5723 5719 5714 5710 5704 5700 5695 5691 5686 5680 5674 5669 5665 5661 5657 5653 5650 5648 5645 5640 5637 5633 5628 5622 5615 5610 5606 5602 5598 5596 5594 5593 5591 5589 5587 5585 5583 5582 5581 5581 5581 5580 5580 5580 5580 5581 5582 5582 5583 5584 5587 5591 5594 5596 5598 5601 5601 5603 5605 5608 5611 5615 5618 5621 5627 5635 5640 5638 5636 5641 5651 5661 5669 5676 5681 5687 5693 5699 5705 5711 5718 5724 5728 5732 5735
5733 5729 5726 5722 5717 5713 5708 5703 5698 5694 5689 5684 5678 5672 5667 5664 5659 5655 5652 5650 5647 5643 5639 5635 5630 5626 5620 5613 5607 5603 5600 5597 5595 5594 5592 5590 5588 5586 5584 5582 5581 5580 5579 5579 5579 5578 5578 5578 5579 5579 5579 5580 5582 5584 5588 5591 5592 5595 5598 5599 5601 5604 5606 5609 5614 5618 5622 5625 5630 5634 5633 5634 5641 5650 5660 5668 5673 5679 5685 5689 5694 5701 5707 5713 5717 5721 5726 5730
5732 5728 5724 5720 5716 5711 5707 5702 5698 5694 5688 5682 5676 5670 5665 5661 5657 5654 5651 5648 5644 5641 5638 5634 5628 5623 5618 5613 5607 5603 5600 5598 5596 5594 5592 5590 5588 5586 5584 5582 5581 5579 5578 5577 5577 5576 5576 5577 5577 5576 5576 5577 5579 5582 5584 5585 5588 5591 5594 5596 5600 5603 5605 5609 5614 5618 5621 5622 5626 5630 5630 5634 5641 5650 5659 5666 5670 5676 5681 5685 5691 5697 5703 5707 5710 5715 5721 5725
5730 5727 5723 5719 5715 5710 5706 5702 5698 5692 5686 5680 5674 5668 5663 5659 5656 5653 5650 5646 5643 5639 5635 5631 5626 5621 5617 5613 5608 5604 5601 5599 5597 5595 5593 5591 5589 5587 5585 5583 5581 5580 5578 5576 5576 5575 5575 5575 5575 5574 5575 5576 5578 5580 5582 5584 5586 5588 5591 5595 5598 5601 5604 5609 5612 5616 5618 5621 5626 5631 5631 5635 5642 5650 5658 5665 5670 5675 5679 5683 5689 5694 5698 5701 5705 5712 5718 5722
5729 5726 5722 5718 5713 5709 5705 5701 5697 5691 5685 5678 5672 5668 5663 5658 5655 5652 5649 5645 5641 5637 5633 5629 5625 5621 5617 5613 5610 5607 5603 5601 5599 5597 5595 5592 5590 5588 5586 5584 5582 5580 5578 5576 5575 5573 5573 5573 5572 5572 5573 5574 5576 5578 5581 5584 5587 5589 5592 5595 5597 5599 5603 5607 5610 5613 5616 5621 5626 5630 5632 5636 5643 5650 5657 5664 5670 5675 5679 5683 5686 5690 5693 5697 5702 5709 5714 5718
5728 5724 5721 5716 5712 5708 5704 5700 5695 5690 5684 5678 5673 5668 5663 5658 5654 5651 5648 5644 5640 5636 5632 5629 5626 5622 5619 5615 5612 5609 5606 5603 5601 5599 5597 5594 5592 5589 5587 5585 5583 5580 5578 5576 5575 5574 5572 5571 5570 5570 5571 5572 5574 5577 5580 5584 5587 5590 5593 5594 5595 5597 5600 5604 5608 5612 5616 5620 5624 5627 5631 5637 5643 5650 5657 5663 5669 5675 5678 5682 5685 5687 5690 5694 5699 5704 5709 5713
5726 5723 5719 5715 5711 5707 5702 5698 5693 5688 5683 5678 5672 5668 5663 5658 5654 5651 5647 5643 5640 5636 5632 5630 5626 5623 5620 5618 5614 5611 5609 5606 5603 5601 5598 5596 5593 5591 5589 5586 5583 5580 5579 5577 5576 5574 5573 5571 5570 5570 5570 5571 5572 5576 5580 5584 5587 5589 5591 5592 5595 5598 5600 5603 5608 5612 5615 5619 5622 5624 5628 5634 5642 5650 5657 5662 5666 5668 5670 5674 5679 5684 5688 5691 5695 5700 5704 5708
5724 5721 5717 5713 5709 5705 5701 5696 5692 5688 5683 5677 5672 5668 5663 5658 5654 5650 5647 5643 5639 5636 5633 5630 5627 5623 5621 5619 5616 5613 5611 5608 5605 5602 5600 5598 5595 5592 5590 5587 5583 5581 5579 5578 5576 5575 5573 5571 5570 5569 5569 5570 5571 5574 5578 5581 5584 5588 5591 5593 5597 5600 5602 5604 5608 5612 5615 5618 5621 5623 5626 5633 5642 5647 5651 5655 5658 5660 5662 5665 5671 5679 5685 5688 5692 5696 5700 5704
5723 5719 5716 5711 5707 5703 5699 5695 5691 5687 5682 5676 5671 5666 5662 5658 5654 5651 5648 5644 5640 5637 5634 5631 5627 5624 5622 5620 5617 5615 5612 5609 5606 5603 5601 5598 5595 5592 5590 5587 5583 5581 5579 5578 5576 5574 5572 5571 5570 5569 5568 5568 5569 5572 5575 5579 5582 5585 5589 5592 5596 5599 5601 5605 5609 5612 5614 5616 5619 5621 5624 5631 5639 5642 5643 5647 5653 5656 5660 5663 5668 5674 5680 5685 5689 5693 5697 5701
5721 5717 5714 5709 5705 5702 5699 5695 5690 5686 5682 5676 5670 5665 5661 5658 5654 5651 5648 5644 5640 5637 5635 5631 5628 5625 5623 5621 5618 5616 5613 5610 5607 5604 5602 5599 5596 5594 5591 5588 5584 5582 5579 5577 5575 5573 5572 5572 5570 5569 5568 5568 5569 5571 5574 5577 5580 5583 5586 5589 5593 5597 5602 5606 5609 5610 5612 5614 5617 5620 5623 5629 5635 5638 5640 5646 5651 5655 5659 5662 5666 5670 5675 5680 5685 5689 5693 5697
5718 5715 5711 5707 5703 5700 5698 5694 5690 5686 5682 5677 5671 5666 5660 5657 5655 5651 5648 5644 5640 5637 5635 5632 5629 5626 5624 5621 5619 5617 5615 5612 5609 5606 5603 5600 5598 5595 5592 5588 5585 5583 5581 5579 5577 5576 5576 5574 5572 5570 5569 5568 5569 5571 5574 5577 5580 5584 5587 5590 5594 5598 5602 5605 5607 5608 5610 5613 5615 5618 5622 5627 5632 5635 5639 5643 5648 5653 5657 5660 5663 5668 5672 5677 5681 5686 5690 5694
5716 5712 5709 5706 5702 5698 5695 5692 5688 5685 5681 5677 5672 5667 5661 5657 5655 5651 5647 5643 5640 5638 5635 5633 5629 5627 5625 5622 5620 5618 5616 5613 5611 5608 5605 5602 5599 5596 5593 5589 5587 5585 5582 5581 5579 5579 5579 5577 5575 5574 5572 5570 5570 5572 5575 5579 5583 5586 5589 5591 5594 5598 5600 5603 5605 5607 5609 5612 5614 5617 5621 5625 5628 5629 5634 5639 5644 5649 5653 5657 5662 5666 5670 5673 5678 5683 5687 5692
5715 5711 5707 5704 5700 5696 5692 5690 5686 5683 5680 5676 5672 5668 5663 5659 5655 5651 5646 5643 5640 5638 5635 5633 5630 5627 5625 5623 5621 5618 5616 5614 5612 5610 5607 5604 5601 5599 5595 5592 5591 5589 5586 5584 5582 5580 5580 5579 5578 5578 5577 5575 5575 5576 5578 5581 5584 5587 5590 5593 5595 5597 5600 5602 5604 5606 5609 5612 5615 5617 5620 5624 5627 5629 5632 5636 5640 5645 5650 5655 5659 5663 5666 5670 5674 5679 5684 5689
5713 5709 5706 5703 5699 5694 5690 5687 5684 5680 5677 5675 5671 5668 5664 5659 5654 5650 5646 5643 5641 5638 5636 5633 5630 5627 5625 5624 5621 5619 5617 5614 5612 5610 5608 5605 5603 5600 5597 5594 5592 5591 5589 5587 5585 5583 5582 5582 5581 5581 5581 5580 5580 5580 5582 5584 5587 5590 5592 5594 5596 5598 5600 5601 5603 5607 5609 5610 5612 5616 5619 5623 5627 5630 5633 5634 5638 5642 5647 5652 5656 5660 5662 5666 5670 5675 5680 5685
5711 5707 5704 5701 5698 5694 5690 5687 5683 5680 5676 5673 5670 5667 5663 5658 5653 5649 5646 5644 5641 5638 5636 5633 5630 5628 5626 5624 5622 5619 5617 5615 5612 5610 5608 5606 5603 5601 5599 5596 5594 5592 5590 5589 5588 5587 5586 5585 5584 5584 5585 5585 5585 5585 5586 5588 5590 5593 5595 5596 5598 5599 5600 5601 5603 5606 5608 5608 5611 5615 5618 5622 5627 5630 5632 5634 5637 5641 5644 5649 5653 5657 5660 5662 5666 5671 5676 5681
5709 5705 5702 5699 5696 5692 5689 5686 5683 5679 5676 5673 5669 5666 5663 5658 5653 5649 5647 5644 5641 5639 5637 5634 5630 5628 5626 5624 5622 5620 5617 5616 5614 5612 5610 5608 5605 5603 5601 5599 5596 5594 5593 5593 5592 5590 5589 5588 5586 5586 5587 5588 5589 5589 5590 5591 5592 5594 5596 5597 5598 5598 5599 5601 5603 5606 5607 5609 5612 5615 5618 5623 5627 5629 5630 5634 5637 5640 5643 5646 5650 5654 5657 5660 5663 5668 5674 5678
5707 5703 5699 5696 5694 5691 5687 5684 5681 5678 5675 5672 5669 5665 5662 5658 5654 5649 5646 5644 5642 5639 5637 5634 5631 5629 5626 5624 5623 5620 5618 5616 5614 5613 5612 5610 5607 5604 5603 5601 5599 5597 5596 5595 5594 5592 5591 5590 5588 5588 5588 5589 5590 5590 5590 5592 5593 5594 5595 5596 5598 5599 5599 5601 5603 5605 5607 5610 5613 5615 5619 5624 5626 5627 5630 5634 5637 5640 5643 5646 5649 5652 5655 5657 5661 5666 5671 5676
5706 5702 5698 5694 5692 5690 5686 5683 5680 5676 5674 5671 5668 5665 5661 5658 5655 5650 5645 5643 5641 5639 5637 5635 5632 5630 5627 5624 5623 5621 5618 5616 5615 5614 5613 5611 5609 5606 5604 5602 5600 5599 5597 5596 5595 5594 5592 5590 5589 5589 5589 5589 5590 5590 5590 5591 5593 5594 5595 5596 5598 5600 5601 5603 5605 5606 5608 5611 5613 5615 5618 5621 5623 5625 5630 5633 5636 5639 5643 5646 5649 5651 5653 5656 5659 5664 5670 5674
5703 5700 5696 5693 5691 5689 5686 5682 5679 5675 5672 5670 5667 5664 5661 5658 5655 5651 5646 5642 5639 5637 5635 5633 5632 5631 5628 5626 5624 5622 5619 5617 5615 5614 5613 5612 5610 5608 5605 5603 5601 5599 5598 5597 5596 5595 5593 5591 5590 5590 5590 5590 5591 5591 5591 5592 5593 5594 5595 5596 5598 5600 5602 5604 5606 5608 5610 5612 5613 5616 5618 5619 5621 5624 5627 5630 5634 5637 5640 5643 5646 5649 5652 5655 5658 5662 5667 5672